Вернуться в каталог

STARLINK-36944

АктивенСвязьSSO
NORAD 68029·PAYLOAD·🇺🇸 United States

Запущен Mar 1, 2026 с Vandenberg Space Force Base

Loading…

Ближайшие Пролёты (ближайшие 24 часа)

TLE

СвежийSource: CelesTrak SupGP

Эпоха: Sep 15, 2026, 04:07 UTC

1 68029C 26040Q   26258.17201389  .00073114  00000+0  22700-2 0  2587
2 68029  97.2855 205.5812 0001930  97.3198 172.0405 15.33396545    10

Отслеживайте STARLINK-36944 в реальном времени с AllMySat

Download on the App Store